Change the Weather History Date:

Monday, October 20, 2014

  Actual Average (KTAD) Record (KTAD)
Temperature  
Mean Temperature 47 °F 51 °F  
Max Temperature 55 °F 67 °F 84 °F (2007)
Min Temperature 39 °F 35 °F 23 °F (1990)
Degree Days  
Heating Degree Days 18 14  
Month to date heating degree days 217  
Since 1 July heating degree days 327  
Cooling Degree Days 0 0  
Month to date cooling degree days 0  
Year to date cooling degree days 716  
Moisture  
Dew Point 31 °F    
Average Humidity 57    
Maximum Humidity 70    
Minimum Humidity 38    
Precipitation  
Precipitation 0.00 in 0.03 in 0.91 in (1986)
Month to date precipitation 0.55  
Year to date precipitation 12.25  
Sea Level Pressure  
Sea Level Pressure 30.40 in    
Wind  
Wind Speed 5 mph (NE)    
Max Wind Speed 9 mph    
Max Gust Speed -    
Visibility 10 miles    
Events      
T = Trace of Precipitation, MM = Missing Value Source: NWS Daily Summary

Daily Weather History Graph

Daily Weather History Graph

Search for Another Location

Airport or City:

Trip Planner

Search our weather history database for the weather conditions in past years. The results will help you decide how hot, cold, wet, or windy it might be!

Date:

Astronomy

Oct. 20, 2014 Rise Set
Actual Time 7:13 AM MDT 6:16 PM MDT
Civil Twilight 6:47 AM MDT 6:43 PM MDT
Nautical Twilight 6:16 AM MDT 7:13 PM MDT
Astronomical Twilight 5:46 AM MDT 7:43 PM MDT
Moon 4:07 AM MDT (10/20) 4:37 PM MDT (10/20)
Length of Visible Light 11h 56m
Length of Day
11h 03m
Waning Crescent, 10% of the Moon is Illuminated
Oct 20
Waning Crescent
Oct 23
New
Oct 30
First Quarter
Nov 6
Full
Nov 14
Last Quarter

Hourly Weather History & Observations

Time (MDT) Temp. Windchill Dew Point Humidity Pressure Visibility Wind Dir Wind Speed Gust Speed Precip Events Conditions
12:11 AM 41.0 °F 38.0 °F 32.0 °F 70% 30.40 in 10.0 mi West 4.6 mph - N/A   Clear
12:31 AM 41.0 °F 39.0 °F 32.0 °F 70% 30.40 in 10.0 mi West 3.5 mph - N/A   Clear
12:50 AM 41.0 °F 39.0 °F 32.0 °F 70% 30.39 in 10.0 mi WNW 3.5 mph - N/A   Clear
1:12 AM 42.8 °F - 32.0 °F 66% 30.40 in 10.0 mi Calm Calm - N/A   Clear
1:29 AM 41.0 °F - 30.2 °F 65% 30.40 in 10.0 mi Calm Calm - N/A   Clear
1:46 AM 39.2 °F 37.0 °F 30.2 °F 70% 30.39 in 10.0 mi NNE 3.5 mph - N/A   Clear
2:10 AM 39.2 °F 35.9 °F 30.2 °F 70% 30.39 in 10.0 mi NNE 4.6 mph - N/A   Clear
2:28 AM 39.2 °F 35.9 °F 30.2 °F 70% 30.39 in 10.0 mi NNE 4.6 mph - N/A   Clear
2:50 AM 41.0 °F 35.8 °F 30.2 °F 65% 30.39 in 10.0 mi NE 8.1 mph - N/A   Clear
3:10 AM 41.0 °F 35.8 °F 28.4 °F 61% 30.39 in 10.0 mi NE 8.1 mph - N/A   Clear
3:32 AM 39.2 °F 35.9 °F 30.2 °F 70% 30.39 in 10.0 mi NE 4.6 mph - N/A   Clear
3:45 AM 39.2 °F 37.0 °F 30.2 °F 70% 30.39 in 10.0 mi ENE 3.5 mph - N/A   Clear
4:11 AM 41.0 °F 37.1 °F 28.4 °F 61% 30.39 in 10.0 mi East 5.8 mph - N/A   Clear
4:29 AM 41.0 °F 37.1 °F 28.4 °F 61% 30.39 in 10.0 mi East 5.8 mph - N/A   Clear
4:44 AM 41.0 °F 38.0 °F 26.6 °F 57% 30.39 in 10.0 mi East 4.6 mph - N/A   Clear
5:12 AM 41.0 °F 38.0 °F 26.6 °F 57% 30.40 in 10.0 mi East 4.6 mph - N/A   Scattered Clouds
5:29 AM 42.8 °F 40.1 °F 26.6 °F 53% 30.40 in 10.0 mi ENE 4.6 mph - N/A   Mostly Cloudy
5:52 AM 41.0 °F 37.1 °F 28.4 °F 61% 30.40 in 10.0 mi NE 5.8 mph - N/A   Overcast
6:09 AM 41.0 °F 37.1 °F 28.4 °F 61% 30.40 in 10.0 mi NE 5.8 mph - N/A   Mostly Cloudy
6:31 AM 39.2 °F 34.2 °F 30.2 °F 70% 30.40 in 10.0 mi NE 6.9 mph - N/A   Scattered Clouds
6:52 AM 39.2 °F 33.6 °F 30.2 °F 70% 30.41 in 10.0 mi NE 8.1 mph - N/A   Scattered Clouds
7:11 AM 39.2 °F 34.2 °F 30.2 °F 70% 30.41 in 10.0 mi NE 6.9 mph - N/A   Mostly Cloudy
7:20 AM 39.2 °F 33.6 °F 30.2 °F 70% 30.41 in 10.0 mi NE 8.1 mph - N/A   Overcast
7:49 AM 44.6 °F 40.7 °F 30.2 °F 57% 30.41 in 10.0 mi NE 6.9 mph - N/A   Mostly Cloudy
8:10 AM 42.8 °F 39.3 °F 30.2 °F 61% 30.42 in 10.0 mi NE 5.8 mph - N/A   Mostly Cloudy
8:32 AM 44.6 °F 41.4 °F 30.2 °F 57% 30.43 in 10.0 mi NE 5.8 mph - N/A   Scattered Clouds
8:50 AM 44.6 °F 43.1 °F 30.2 °F 57% 30.44 in 10.0 mi NNE 3.5 mph - N/A   Mostly Cloudy
9:08 AM 44.6 °F 43.1 °F 30.2 °F 57% 30.44 in 10.0 mi NNE 3.5 mph - N/A   Overcast
9:32 AM 44.6 °F 41.4 °F 30.2 °F 57% 30.44 in 10.0 mi NE 5.8 mph - N/A   Overcast
9:48 AM 50.0 °F - 30.2 °F 47% 30.44 in 10.0 mi NE 5.8 mph - N/A   Scattered Clouds
10:11 AM 51.8 °F - 30.2 °F 44% 30.44 in 10.0 mi NE 5.8 mph - N/A   Clear
10:32 AM 53.6 °F - 32.0 °F 44% 30.44 in 10.0 mi NNE 4.6 mph - N/A   Clear
10:49 AM 53.6 °F - 32.0 °F 44% 30.44 in 10.0 mi NNE 4.6 mph - N/A   Clear
11:08 AM 53.6 °F - 32.0 °F 44% 30.44 in 10.0 mi NNE 5.8 mph - N/A   Clear
11:30 AM 53.6 °F - 32.0 °F 44% 30.43 in 10.0 mi NNE 6.9 mph - N/A   Clear
11:49 AM 53.6 °F - 32.0 °F 44% 30.43 in 10.0 mi NNE 6.9 mph - N/A   Clear
12:06 PM 55.4 °F - 32.0 °F 41% 30.43 in 10.0 mi NE 6.9 mph - N/A   Clear
12:31 PM 55.4 °F - 30.2 °F 38% 30.42 in 10.0 mi NE 9.2 mph - N/A   Unknown
12:52 PM 53.6 °F - 32.0 °F 44% 30.41 in 10.0 mi NE 8.1 mph - N/A   Scattered Clouds
1:11 PM 53.6 °F - 32.0 °F 44% 30.41 in 10.0 mi NNE 5.8 mph - N/A   Clear
1:31 PM 53.6 °F - 32.0 °F 44% 30.40 in 10.0 mi ENE 6.9 mph - N/A   Clear
1:50 PM 51.8 °F - 32.0 °F 47% 30.40 in 10.0 mi NE 6.9 mph - N/A   Mostly Cloudy
2:12 PM 50.0 °F - 32.0 °F 50% 30.39 in 10.0 mi NNE 3.5 mph - N/A   Overcast
2:31 PM 50.0 °F - 32.0 °F 50% 30.39 in 10.0 mi NNE 6.9 mph - N/A   Overcast
2:43 PM 51.8 °F - 32.0 °F 47% 30.39 in 10.0 mi NE 4.6 mph - N/A   Overcast
3:11 PM 51.8 °F - 32.0 °F 47% 30.39 in 10.0 mi NNE 3.5 mph - N/A   Overcast
3:30 PM 50.0 °F - 32.0 °F 50% 30.39 in 10.0 mi NNE 5.8 mph - N/A   Overcast
3:49 PM 51.8 °F - 32.0 °F 47% 30.39 in 10.0 mi NNE 3.5 mph - N/A   Overcast
4:10 PM 51.8 °F - 32.0 °F 47% 30.38 in 10.0 mi NE 5.8 mph - N/A   Overcast
4:32 PM 50.0 °F - 32.0 °F 50% 30.38 in 10.0 mi Calm Calm - N/A   Overcast
4:44 PM 46.4 °F 45.2 °F 32.0 °F 57% 30.38 in 10.0 mi ENE 3.5 mph - N/A   Mostly Cloudy
5:11 PM 46.4 °F 43.5 °F 32.0 °F 57% 30.38 in 10.0 mi ESE 5.8 mph - N/A   Overcast
5:26 PM 46.4 °F 42.9 °F 32.0 °F 57% 30.38 in 10.0 mi ENE 6.9 mph - N/A   Overcast
5:52 PM 46.4 °F 45.2 °F 30.2 °F 53% 30.38 in 10.0 mi NNE 3.5 mph - N/A   Overcast
6:10 PM 44.6 °F 43.1 °F 30.2 °F 57% 30.38 in 10.0 mi North 3.5 mph - N/A   Mostly Cloudy
6:31 PM 42.8 °F 41.1 °F 32.0 °F 66% 30.37 in 10.0 mi North 3.5 mph - N/A   Scattered Clouds
6:45 PM 42.8 °F 40.1 °F 30.2 °F 61% 30.37 in 10.0 mi North 4.6 mph - N/A   Scattered Clouds
7:11 PM 42.8 °F - 30.2 °F 61% 30.38 in 10.0 mi Calm Calm - N/A   Clear
7:32 PM 44.6 °F 42.2 °F 32.0 °F 61% 30.38 in 10.0 mi East 4.6 mph - N/A   Clear
7:46 PM 44.6 °F 43.1 °F 30.2 °F 57% 30.38 in 10.0 mi East 3.5 mph - N/A   Clear
8:03 PM 42.8 °F 38.6 °F 28.4 °F 57% 30.38 in 10.0 mi SE 6.9 mph - N/A   Clear
8:14 PM 42.8 °F 39.3 °F 28.4 °F 57% 30.38 in 10.0 mi SSE 5.8 mph - N/A   Clear
8:52 PM 42.8 °F 38.6 °F 28.4 °F 57% 30.38 in 10.0 mi South 6.9 mph - N/A   Scattered Clouds
9:12 PM 42.8 °F 41.1 °F 30.2 °F 61% 30.38 in 10.0 mi South 3.5 mph - N/A   Scattered Clouds
9:29 PM 42.8 °F 40.1 °F 28.4 °F 57% 30.38 in 10.0 mi South 4.6 mph - N/A   Clear
9:51 PM 42.8 °F 40.1 °F 30.2 °F 61% 30.38 in 10.0 mi South 4.6 mph - N/A   Clear
10:12 PM 42.8 °F 39.3 °F 30.2 °F 61% 30.38 in 10.0 mi South 5.8 mph - N/A   Clear
10:32 PM 42.8 °F 40.1 °F 30.2 °F 61% 30.37 in 10.0 mi South 4.6 mph - N/A   Clear
10:50 PM 42.8 °F 39.3 °F 30.2 °F 61% 30.37 in 10.0 mi SSW 5.8 mph - N/A   Clear
11:12 PM 42.8 °F 40.1 °F 30.2 °F 61% 30.36 in 10.0 mi South 4.6 mph - N/A   Clear
11:32 PM 42.8 °F 38.0 °F 30.2 °F 61% 30.35 in 10.0 mi SSW 8.1 mph - N/A   Clear
11:51 PM 41.0 °F 36.4 °F 30.2 °F 65% 30.35 in 10.0 mi SSW 6.9 mph - N/A   Clear